When you browse on this site, cookies collect data to enhance your experience and personalize the content and advertising you see.
Visit our Privacy Policy to learn more. By continuing to use the site, you agree to this use of cookies and data.
  • In Romania
  • List of Countries
  • For 7 days
  • Water Temperature
  • Weather Map
  • Weather Widgets
  • user-avatar
    Login

    Hourly Weather Mons

    Today, 25 January, Saturday

    Time Temperature Precipitation Wind Pressure Humidity
    00:00 -2°C° 0 mm 2 mps 764 mmHg 66%
    01:00 -2°C° 0 mm 2 mps 764 mmHg 67%
    02:00 0°C° 0 mm 1 mps 764 mmHg 69%
    03:00 0°C° 0 mm 1 mps 763 mmHg 71%
    04:00 +1°C° 0 mm 1 mps 763 mmHg 74%
    05:00 -1°C° 0 mm 2 mps 763 mmHg 77%
    06:00 -1°C° 0 mm 2 mps 763 mmHg 78%
    07:00 -1°C° 0 mm 2 mps 763 mmHg 79%
    08:00 +1°C° 0 mm 2 mps 763 mmHg 81%
    09:00 +2°C° 0 mm 2 mps 764 mmHg 82%
    10:00 +3°C° 0 mm 2 mps 763 mmHg 80%
    11:00 +5°C° 0 mm 2 mps 763 mmHg 77%
    12:00 +5°C° 0 mm 3 mps 763 mmHg 75%
    13:00 +6°C° 0 mm 2 mps 762 mmHg 77%
    14:00 +6°C° 0 mm 2 mps 762 mmHg 80%
    15:00 +6°C° 0 mm 2 mps 761 mmHg 83%
    16:00 +5°C° 0 mm 2 mps 761 mmHg 86%
    17:00 +4°C° 0 mm 2 mps 761 mmHg 89%
    18:00 +2°C° 0 mm 3 mps 761 mmHg 91%
    19:00 +2°C° 0 mm 3 mps 761 mmHg 91%
    20:00 +2°C° 0 mm 3 mps 761 mmHg 90%
    21:00 +2°C° 0 mm 3 mps 761 mmHg 90%
    22:00 +2°C° 0 mm 3 mps 761 mmHg 90%
    23:00 +2°C° 0 mm 3 mps 761 mmHg 90%

    Tomorrow, 26 January, Sunday

    Time Temperature Precipitation Wind Pressure Humidity
    00:00 +2°C° 0 mm 3 mps 760 mmHg 90%
    01:00 +1°C° 0 mm 4 mps 760 mmHg 90%
    02:00 +1°C° 0 mm 4 mps 760 mmHg 91%
    03:00 0°C° 0 mm 4 mps 759 mmHg 91%
    04:00 0°C° 0 mm 4 mps 759 mmHg 91%
    05:00 0°C° 0 mm 4 mps 759 mmHg 92%
    06:00 0°C° 0 mm 4 mps 759 mmHg 92%
    07:00 +1°C° 0 mm 4 mps 759 mmHg 91%
    08:00 +1°C° 0 mm 5 mps 759 mmHg 91%
    09:00 +2°C° 0 mm 5 mps 759 mmHg 90%
    10:00 +3°C° 0 mm 5 mps 759 mmHg 87%
    11:00 +5°C° 0 mm 5 mps 759 mmHg 85%
    12:00 +5°C° 0 mm 6 mps 758 mmHg 83%
    13:00 +7°C° 0 mm 6 mps 758 mmHg 83%
    14:00 +7°C° 0 mm 6 mps 758 mmHg 83%
    15:00 +7°C° 0 mm 6 mps 757 mmHg 83%
    16:00 +7°C° 0 mm 5 mps 757 mmHg 85%
    17:00 +6°C° 0 mm 5 mps 757 mmHg 87%
    18:00 +6°C° 0 mm 5 mps 757 mmHg 88%
    19:00 +6°C° 0 mm 5 mps 757 mmHg 88%
    20:00 +5°C° 0 mm 6 mps 757 mmHg 88%
    21:00 +5°C° 0 mm 6 mps 757 mmHg 88%
    22:00 +5°C° 0 mm 6 mps 756 mmHg 88%
    23:00 +5°C° 0 mm 7 mps 756 mmHg 89%

    Day after tomorrow, 27 January, Monday

    Time Temperature Precipitation Wind Pressure Humidity
    00:00 +5°C° 0 mm 7 mps 755 mmHg 90%
    01:00 +6°C° 0.8 mm 7 mps 755 mmHg 89%
    02:00 +6°C° 0.8 mm 8 mps 754 mmHg 89%
    03:00 +6°C° 0.8 mm 8 mps 754 mmHg 89%
    04:00 +6°C° 0.3 mm 8 mps 754 mmHg 89%
    05:00 +6°C° 0.3 mm 7 mps 754 mmHg 89%
    06:00 +6°C° 0.3 mm 7 mps 753 mmHg 89%
    07:00 +7°C° 0.1 mm 6 mps 753 mmHg 89%
    08:00 +7°C° 0.1 mm 6 mps 753 mmHg 90%
    09:00 +7°C° 0.1 mm 6 mps 753 mmHg 90%
    10:00 +7°C° 1.5 mm 6 mps 753 mmHg 91%
    11:00 +7°C° 1.5 mm 5 mps 752 mmHg 92%
    12:00 +7°C° 1.5 mm 5 mps 752 mmHg 93%
    13:00 +7°C° 0.4 mm 5 mps 751 mmHg 90%
    14:00 +7°C° 0.4 mm 5 mps 750 mmHg 86%
    15:00 +8°C° 0.4 mm 5 mps 750 mmHg 82%
    16:00 +7°C° 0.2 mm 5 mps 749 mmHg 85%
    17:00 +7°C° 0.2 mm 5 mps 749 mmHg 88%
    18:00 +6°C° 0.2 mm 5 mps 748 mmHg 90%
    19:00 +7°C° 0.8 mm 5 mps 747 mmHg 91%
    20:00 +7°C° 0.8 mm 6 mps 746 mmHg 91%
    21:00 +7°C° 0.8 mm 6 mps 746 mmHg 92%
    22:00 +5°C° 0.4 mm 6 mps 745 mmHg 91%
    23:00 +5°C° 0.4 mm 6 mps 744 mmHg 90%

    28 January, Tuesday

    Time Temperature Precipitation Wind Pressure Humidity
    00:00 +5°C° 0.4 mm 7 mps 743 mmHg 89%
    01:00 +5°C° 0.2 mm 7 mps 743 mmHg 87%
    02:00 +5°C° 0.2 mm 7 mps 743 mmHg 86%
    03:00 +5°C° 0.2 mm 8 mps 742 mmHg 85%
    04:00 +4°C° 0.4 mm 8 mps 742 mmHg 85%
    05:00 +3°C° 0.4 mm 9 mps 742 mmHg 86%
    06:00 +2°C° 0.4 mm 10 mps 742 mmHg 87%
    07:00 +2°C° 1.2 mm 10 mps 742 mmHg 84%
    08:00 +2°C° 1.2 mm 9 mps 743 mmHg 81%
    09:00 +2°C° 1.2 mm 9 mps 744 mmHg 78%
    10:00 +2°C° 0.2 mm 9 mps 744 mmHg 74%
    11:00 +2°C° 0.2 mm 8 mps 745 mmHg 70%
    12:00 +4°C° 0.2 mm 8 mps 745 mmHg 65%
    13:00 +2°C° 0.2 mm 8 mps 746 mmHg 69%
    14:00 +2°C° 0.2 mm 8 mps 746 mmHg 72%
    15:00 +2°C° 0.2 mm 8 mps 746 mmHg 76%
    16:00 +1°C° 0.3 mm 8 mps 746 mmHg 77%
    17:00 +2°C° 0.3 mm 7 mps 746 mmHg 79%
    18:00 +2°C° 0.3 mm 7 mps 746 mmHg 80%
    19:00 +1°C° 0.2 mm 6 mps 746 mmHg 81%
    20:00 +1°C° 0.2 mm 6 mps 747 mmHg 81%
    21:00 +1°C° 0.2 mm 5 mps 747 mmHg 82%
    22:00 +1°C° 0 mm 5 mps 748 mmHg 83%
    23:00 0°C° 0 mm 5 mps 748 mmHg 83%

    29 January, Wednesday

    Time Temperature Precipitation Wind Pressure Humidity
    00:00 0°C° 0 mm 5 mps 749 mmHg 84%
    01:00 0°C° 0 mm 5 mps 750 mmHg 85%
    02:00 0°C° 0 mm 5 mps 750 mmHg 86%
    03:00 -1°C° 0 mm 5 mps 751 mmHg 87%
    04:00 -1°C° 0 mm 5 mps 751 mmHg 87%
    05:00 -1°C° 0 mm 5 mps 752 mmHg 87%
    06:00 -2°C° 0 mm 6 mps 752 mmHg 87%
    07:00 -1°C° 0 mm 6 mps 752 mmHg 87%
    08:00 -1°C° 0 mm 7 mps 753 mmHg 88%
    09:00 0°C° 0 mm 7 mps 753 mmHg 88%
    10:00 +2°C° 0.4 mm 7 mps 753 mmHg 82%
    11:00 +1°C° 0.4 mm 8 mps 753 mmHg 77%
    12:00 +2°C° 0.4 mm 8 mps 753 mmHg 71%
    13:00 +3°C° 0.1 mm 7 mps 753 mmHg 70%
    14:00 +3°C° 0.1 mm 7 mps 754 mmHg 69%
    15:00 +4°C° 0.1 mm 6 mps 754 mmHg 68%
    16:00 +3°C° 0.1 mm 5 mps 754 mmHg 73%
    17:00 +3°C° 0.1 mm 4 mps 755 mmHg 78%
    18:00 +1°C° 0.1 mm 3 mps 756 mmHg 83%
    19:00 +1°C° 0 mm 3 mps 756 mmHg 85%
    20:00 +1°C° 0 mm 3 mps 757 mmHg 86%
    21:00 +1°C° 0 mm 3 mps 758 mmHg 88%
    22:00 +1°C° 0 mm 3 mps 758 mmHg 89%
    23:00 0°C° 0 mm 4 mps 758 mmHg 90%

    30 January, Thursday

    Time Temperature Precipitation Wind Pressure Humidity
    00:00 0°C° 0 mm 4 mps 758 mmHg 91%
    01:00 +1°C° 0 mm 4 mps 758 mmHg 91%
    02:00 +1°C° 0 mm 5 mps 758 mmHg 91%
    03:00 +2°C° 0 mm 5 mps 758 mmHg 90%
    04:00 +1°C° 0 mm 5 mps 758 mmHg 91%
    05:00 +1°C° 0 mm 5 mps 758 mmHg 91%
    06:00 +1°C° 0 mm 5 mps 758 mmHg 92%
    07:00 +1°C° 0 mm 5 mps 758 mmHg 90%
    08:00 +1°C° 0 mm 5 mps 758 mmHg 89%
    09:00 +2°C° 0 mm 6 mps 758 mmHg 87%
    10:00 +3°C° 0 mm 6 mps 758 mmHg 84%
    11:00 +4°C° 0 mm 6 mps 757 mmHg 81%
    12:00 +5°C° 0 mm 6 mps 757 mmHg 78%
    13:00 +5°C° 0 mm 6 mps 756 mmHg 78%
    14:00 +6°C° 0 mm 5 mps 756 mmHg 79%
    15:00 +6°C° 0 mm 4 mps 755 mmHg 79%
    16:00 +5°C° 0 mm 4 mps 755 mmHg 83%
    17:00 +4°C° 0 mm 4 mps 754 mmHg 86%
    18:00 +2°C° 0 mm 5 mps 754 mmHg 90%
    19:00 +2°C° 0 mm 5 mps 754 mmHg 88%
    20:00 +3°C° 0 mm 6 mps 753 mmHg 86%
    21:00 +3°C° 0 mm 6 mps 753 mmHg 84%
    22:00 +3°C° 0.2 mm 6 mps 753 mmHg 87%
    23:00 +4°C° 0.2 mm 6 mps 753 mmHg 89%
    Show more